Location: Allos
(44.2333°N, 6.6333°E)
Time: 21:27:19
(UTC+00:00)

Cosmos 1821 Rocket - Pass Details

Date: 25 April 2021
Orbit: 946 x 1003 km, 82.9° (Epoch: 16 May)

Event Time Altitude Azimuth Distance (km) Brightness Sun altitude
Rises 02:56:13 0° 336° (NNW) 3,719 7.2 -16.1°
Reaches altitude 10° 02:59:45 10° 316° (NW) 2,773 6.3 -15.6°
Maximum altitude 03:03:25 16° 281° (W) 2,345 5.6 -15.1°
Enters shadow 03:04:45 15° 266° (W) 2,405 5.6 -14.9°
